This demonstration page uses our WeatherBlox Daily Observations layout. Learn more.

Left ArrowRight Arrow

39.51506, -84.39828

Hourly Observations for September 27, 2021

Temp ( °F °C ) Dew Point ( °F °C ) Humidity (%) Winds ( mph kmh ) Pressure ( in mb ) Visibility ( mi km ) Precip ( " mm )
12:15 am 00:15 Clear 54 12 53 11.9 99 99 WSW 5 7 30.04 1017 10 16 N/A
12:35 am 00:35 Clear 54 12 N/A N/A WSW 5 7 30.04 1017 10 16 N/A
12:55 am 00:55 Clear 52 11 N/A N/A WSW 5 7 30.05 1017 10 16 N/A
1:15 am 01:15 Clear 52 11 N/A N/A W 5 7 30.05 1017 10 16 N/A
1:35 am 01:35 Clear 52 11 N/A N/A WSW 3 6 30.05 1017 10 16 N/A
1:55 am 01:55 Clear 52 11 N/A N/A WSW 6 9 30.05 1017 10 16 N/A
2:15 am 02:15 Clear 52 11 N/A N/A SW 3 6 30.05 1017 10 16 N/A
2:35 am 02:35 Clear 52 11 N/A N/A WSW 3 6 30.05 1017 10 16 N/A
2:55 am 02:55 Clear 52 11 N/A N/A W 3 6 30.06 1018 10 16 N/A
3:15 am 03:15 Clear 52 11 N/A N/A WSW 5 7 30.05 1017 10 16 N/A
3:35 am 03:35 Clear 52 11 N/A N/A SW 3 6 30.05 1017 10 16 N/A
3:55 am 03:55 Clear 52 11 N/A N/A SW 3 6 30.04 1017 10 16 N/A
4:15 am 04:15 Clear 54 12 N/A N/A WSW 5 7 30.03 1017 10 16 N/A
4:35 am 04:35 Clear 54 12 N/A N/A WSW 6 9 30.03 1017 10 16 N/A
4:55 am 04:55 Partly Cloudy 54 12 N/A N/A WSW 5 7 30.02 1017 10 16 N/A
5:15 am 05:15 Clear 54 12 N/A N/A SW 5 7 30.02 1017 10 16 N/A
5:35 am 05:35 Clear 52 11 N/A N/A SW 6 9 30.03 1017 10 16 N/A
5:55 am 05:55 Clear 54 12 N/A N/A SW 5 7 30.02 1017 10 16 N/A
6:15 am 06:15 Clear 52 11 54 12 100 100 SW 5 7 30.04 1017 10 16 N/A
6:35 am 06:35 Clear 52 11 N/A N/A SW 5 7 30.04 1017 10 16 N/A
6:55 am 06:55 Clear 52 11 N/A N/A SW 5 7 30.04 1017 10 16 N/A
7:15 am 07:15 Clear 52 11 N/A N/A SW 5 7 30.04 1017 10 16 N/A
7:35 am 07:35 Sunny 52 11 N/A N/A SW 5 7 30.04 1017 10 16 N/A
7:55 am 07:55 Sunny 52 11 N/A N/A SW 6 9 30.04 1017 10 16 N/A
8:15 am 08:15 Sunny 54 12 N/A N/A SW 5 7 30.03 1017 10 16 N/A
8:35 am 08:35 Sunny 55 12.5 54 12.2 98 98 WSW 5 7 30.03 1017 10 16 N/A
8:55 am 08:55 Sunny 58 14.2 57 13.7 97 97 N N/A 30.02 1017 10 16 N/A
9:15 am 09:15 Sunny 61 15.9 57 13.8 87 87 SSW 5 7 30.01 1016 10 16 N/A
9:35 am 09:35 Sunny 64 17.6 56 13.3 76 76 SSW 10 17 30.00 1016 10 16 N/A
9:55 am 09:55 Sunny 66 18.9 56 13.3 70 70 SW 13 20 30.00 1016 10 16 N/A
10:15 am 10:15 Sunny 68 19.9 56 13.3 66 66 SSW 16 26 29.99 1016 10 16 N/A
10:35 am 10:35 Sunny 70 20.9 56 13.5 63 63 SSW 15 24 29.98 1015 10 16 N/A
10:55 am 10:55 Sunny 71 21.8 56 13.6 60 60 SW 13 20 29.98 1015 10 16 N/A
11:15 am 11:15 Sunny 72 22.4 57 13.7 58 58 SSW 14 22 29.97 1015 10 16 N/A
11:35 am 11:35 Sunny 73 22.9 57 14.1 58 58 SSW 14 22 29.96 1014 10 16 N/A
11:55 am 11:55 Sunny 75 23.8 58 14.6 56 56 SW 13 20 29.96 1014 10 16 N/A
12:15 pm 12:15 Sunny 76 24.6 59 14.9 55 55 SSW 15 24 29.94 1014 10 16 N/A
12:35 pm 12:35 Sunny 78 25.4 60 15.4 54 54 SSW 14 22 29.93 1014 10 16 N/A
12:55 pm 12:55 Sunny 79 26.1 60 15.8 53 53 SSW 15 24 29.93 1014 10 16 N/A
1:15 pm 13:15 Sunny 80 26.9 60 15.8 51 51 SW 20 31 29.92 1013 10 16 N/A
1:35 pm 13:35 Sunny 82 27.5 60 15.6 48 48 SW 18 30 29.91 1013 10 16 N/A
1:55 pm 13:55 Sunny 82 28 61 15.9 48 48 SSW 16 26 29.90 1012 10 16 N/A
2:15 pm 14:15 Sunny 83 28.6 61 16.2 47 47 SW 18 30 29.89 1012 10 16 N/A
2:35 pm 14:35 Sunny 84 28.9 60 15.6 44 44 SW 21 33 29.88 1012 10 16 N/A
2:55 pm 14:55 Sunny 84 29.1 59 15.2 43 43 SW 17 28 29.87 1012 10 16 N/A
3:15 pm 15:15 Sunny 84 29.1 60 15.3 43 43 SW 15 24 29.86 1011 10 16 N/A
3:35 pm 15:35 Sunny 85 29.5 59 15.2 42 42 SW 16 26 29.86 1011 10 16 N/A
3:55 pm 15:55 Sunny 85 29.5 60 15.6 43 43 WSW 16 26 29.85 1011 10 16 N/A
4:15 pm 16:15 Sunny 85 29.3 60 15.5 43 43 SW 17 28 29.85 1011 10 16 N/A
4:35 pm 16:35 Sunny 83 28.4 59 14.8 43 43 WSW 22 35 29.86 1011 10 16 N/A
4:55 pm 16:55 Sunny 83 28.2 59 14.9 44 44 SW 16 26 29.85 1011 10 16 N/A
5:15 pm 17:15 Sunny 83 28.1 60 15.7 47 47 SW 13 20 29.86 1011 10 16 N/A
5:35 pm 17:35 Sunny 82 27.6 60 15.6 48 48 SW 17 28 29.85 1011 10 16 N/A
5:55 pm 17:55 Sunny 82 27.9 61 15.9 48 48 SW 14 22 29.85 1011 10 16 N/A
6:15 pm 18:15 Sunny 82 27.7 60 15.7 48 48 SW 16 26 29.85 1011 10 16 N/A
6:35 pm 18:35 Sunny 81 27 60 15.6 50 50 SW 15 24 29.85 1011 10 16 N/A
6:55 pm 18:55 Sunny 78 25.6 60 15.6 54 54 SW 13 20 29.86 1011 10 16 N/A
7:15 pm 19:15 Sunny 78 25.3 60 15.5 55 55 SW 10 17 29.86 1011 10 16 N/A
7:35 pm 19:35 Clear 77 25 61 16 57 57 SW 13 20 29.87 1012 10 16 N/A
7:55 pm 19:55 Clear 76 24.4 61 16.1 60 60 SW 10 17 29.88 1012 10 16 N/A
8:15 pm 20:15 Clear 75 24.1 61 16.2 61 61 SW 10 17 29.89 1012 10 16 N/A
8:35 pm 20:35 Clear 75 24 61 16.2 62 62 SW 13 20 29.90 1012 10 16 N/A
8:55 pm 20:55 Clear 75 23.7 61 16.2 63 63 SW 9 15 29.90 1012 10 16 N/A
9:15 pm 21:15 Clear 73 23 61 16.2 66 66 SSW 9 15 29.90 1012 10 16 N/A
9:35 pm 21:35 Clear 72 22.4 62 16.4 69 69 SSW 10 17 29.90 1012 10 16 N/A
9:55 pm 21:55 Clear 72 22.4 62 16.7 70 70 SSW 9 15 29.90 1012 10 16 N/A
10:15 pm 22:15 Clear 73 22.5 63 17 71 71 SW 8 13 29.90 1012 10 16 N/A
10:35 pm 22:35 Clear 71 21.7 63 17.1 75 75 WSW 7 11 29.91 1013 10 16 N/A
10:55 pm 22:55 Clear 70 21.2 63 17.4 79 79 SW 7 11 29.92 1013 10 16 N/A
11:15 pm 23:15 Clear 70 21.3 64 17.5 79 79 SW 8 13 29.92 1013 10 16 N/A
11:35 pm 23:35 Clear 70 20.9 64 17.6 82 82 SW 8 13 29.92 1013 10 16 N/A
11:55 pm 23:55 Clear 69 20.5 64 17.8 85 85 SW 7 11 29.92 1013 10 16 N/A

Powered by AerisWeather